CZ-4 DEB

Satellite information

Favourite Embed

Satellite Type and Status

DEBRISIN ORBIT

Key statistics

Satellite CZ-4 DEB at a glance.

Uptime

12725

Days in orbit

Revolutions

≈ 14.1

Per day

Orbit

SSO

Sun Synchronous Orbit

Inclination

98.9

Latest

Satellite identification and parameters

Extended collection of information and parameters for CZ-4 DEB.

Object identification

Identified? True

Debris? True

Object name: CZ-4 DEB

International designator: 1990-081CZ

Object number (NORAD): 37613

Object ID (CCSDS): 37613

Country: PEOPLES REPUBLIC OF CHINA (PRC)

Current information (Y/N): Y

RCS size: SMALL

Orbital parameters

Period: 102.315 minutes

Inclination: 98.8538 deg

SMA: 7246.355 km

Apoapsis: 980.598 km

Periapsis: 755.841 km

RAAN: 13.3035 deg

Eccentricy: 0.0155083

Argument of periapsis: 306.8941 deg

Mean anomaly: 51.8099 deg

Mean motion: 14.07418868 rev/day

Mean motion (dot): 0.00001861 rev/day2

B* drag term: 0.0010149 1/REarth

Two-line elements (TLE)

Creation date: July 5, 2025, 5:45 p.m.

Reference frame: TEME

Reference center: EARTH

Epoch: July 4, 2025, 11:04 p.m. UTC

TLE line 0: 0 CZ-4 DEB

TLE line 1: 1 37613U 90081CZ 25185.96129498 .00001861 00000-0 10149-2 0 9990

TLE line 2: 2 37613 98.8538 13.3035 0155083 306.8941 51.8099 14.07418868 83797

Live tracking on map

Real-time ground track for satellite CZ-4 DEB.

In-orbit conjunctions

A list of the most updated potential collisions computed for object CZ-4 DEB.

Target Orbit TCA Probability of collision Miss distance Type
THORAD AGENA D DEB LEO 2025-07-04 23:35:19 0.0004081138 50.0 (m) DEBRIS
CZ-6A DEB LEO 2024-12-26 11:55:39 0.0001459228 383.0 (m) DEBRIS
DMSP 5D-2 F13 DEB SSO 2024-11-14 02:59:04 0.0001496122 998.0 (m) DEBRIS
SL-8 R/B LEO 2024-07-08 15:47:33 0.0002218772 755.0 (m) ROCKET BODY
FENGYUN 1C DEB SSO 2024-06-21 00:03:18 0.0003905888 66.0 (m) DEBRIS

Associated space launch

Chinese polar orbiting meteorological satellite

CZ-4 DEB was lifted into orbit during the mission ‘Long March 4A | Feng Yun 1B’, on board a Long March 4A space rocket.

The launch took place on Sept. 3, 1990, 12:53 a.m. from Launch Complex 7.

For more information about the launch, click the button.

Launch to space Long March 4A | Feng Yun 1B
Long March 4A | Feng Yun 1B

Agency: N/A

Status: Launch Successful

Launch date: Sept. 3, 1990, 12:53 a.m. UTC

Rocket: Long March 4A

Launch pad: Launch Complex 7

Location: Taiyuan Satellite Launch Center, People's Republic of China

...

Latest news about this satellite

There are no fresh news available about this satellite. Check back as we update our databases every day.


Newsletter sign-up

Weekly statistics, charts and insights to help you stay on top of the space industry.